SKOVDE FLYGPLATS current weather conditions

sailwx.info

Wind from 240 at 11 knots

Air temperature 8.0° C
Visibility: greater than 5.4 NM
Dewpoint 6.0° C

Last reported at 2014-Dec-22 04:50 UTC.
Time now 2014-Dec-22 05:39 UTC

Location: N 58°27' E 013°58'.
View on Google Maps.

See reports from other nearby stations

  
Tides and Currents Weather Stations Pressure Air Temp Water Temp Dewpoint Dewpoint Depression Visibility Wind Speed Wind Dir Waves Ship Positions
date/time (UTC)wind fromknots sea level pressurealtimeterstation pressurevisibilityair tempwater tempwave heightnotes
2014-Dec-22 04:50 240 11 5.4 8.0
2014-Dec-22 04:20 240 12 5.4 7.0
2014-Dec-22 03:50 240 8 5.4 7.0
2014-Dec-22 03:20 240 7 5.4 7.0
2014-Dec-22 02:50 240 8 5.4 7.0
2014-Dec-22 02:20 230 8 5.4 7.0
2014-Dec-22 01:50 220 8 5.4 7.0
2014-Dec-22 01:20 220 8 5.4 6.0 Drizzle.
2014-Dec-22 00:50 200 7 5.4 5.0 Light rain.
2014-Dec-22 00:20 190 9 4.9 5.0 Drizzle.
2014-Dec-21 23:50 190 9 3.2 4.0 Light rain.
2014-Dec-21 23:20 200 10 4.3 4.0 Drizzle.
2014-Dec-21 22:50 190 8 4.3 4.0 Drizzle.
2014-Dec-21 22:20 190 8 4.3 3.0 Drizzle.
2014-Dec-21 21:50 190 9 5.4 3.0 Light rain.
2014-Dec-21 21:20 200 7 4.3 3.0 Light rain.
2014-Dec-21 20:50 200 7 4.3 3.0 Light rain.
2014-Dec-21 20:20 180 6 3.8 2.0 Light rain.
2014-Dec-21 19:50 160 6 3.8 1.0 Light rain.
2014-Dec-21 19:20 170 7 3.8 1.0 Light rain.
2014-Dec-21 18:50 170 6 5.4 1.0 Light drizzle.
2014-Dec-21 18:20 160 6 5.4 1.0 Light drizzle.
2014-Dec-21 17:50 180 6 5.4 1.0 Light drizzle.
2014-Dec-21 17:20 170 6 5.4 1.0 Light rain.
2014-Dec-21 16:50 200 5 5.4 2.0
2014-Dec-21 16:20 210 6 5.4 2.0 Drizzle.
2014-Dec-21 15:50 200 7 5.4 2.0
2014-Dec-21 15:20 200 5 5.4 1.0 Precipitation.
2014-Dec-21 14:50 200 6 5.4 1.0 Precipitation.
2014-Dec-21 14:20 210 7 5.4 1.0
2014-Dec-21 13:50 210 7 5.4 1.0
2014-Dec-21 13:20 220 8 5.4 1.0
2014-Dec-21 12:50 220 7 5.4 1.0
2014-Dec-21 12:20 220 5 5.4 1.0
2014-Dec-21 11:50 240 5 5.4 1.0
2014-Dec-21 11:20 240 6 5.4 1.0
2014-Dec-21 10:50 250 6 5.4 1.0
2014-Dec-21 10:20 220 4 5.4-0.0
2014-Dec-21 09:50 220 4 5.4-0.0
2014-Dec-21 09:20 170 4 5.4-2.0
2014-Dec-21 08:50 250 4 5.4-0.0
2014-Dec-21 08:20 220 4 5.4-4.0
2014-Dec-21 07:50 220 3 5.4-3.0
2014-Dec-21 07:20 210 4 5.4-3.0
2014-Dec-21 06:50 210 4 5.4-3.0
2014-Dec-21 06:20 260 3 5.4-0.0
2014-Dec-21 05:50 210 3 5.4-0.0
2014-Dec-21 05:20 250 3 5.4-1.0
2014-Dec-21 04:50 280 2 5.4-1.0
2014-Dec-21 04:20 5.4 1.0
2014-Dec-21 03:50 310 4 5.4 1.0
2014-Dec-21 03:20 310 5 5.4 2.0
2014-Dec-21 02:50 290 5 5.4 1.0
2014-Dec-21 02:20 300 8 5.4 2.0
2014-Dec-21 01:50 320 7 5.4 2.0
2014-Dec-21 01:20 320 5 5.4 2.0
2014-Dec-21 00:50 300 6 5.4 2.0
2014-Dec-21 00:20 310 7 5.4 2.0
2014-Dec-20 23:50 300 6 5.4 2.0
2014-Dec-20 23:20 300 6 5.4 2.0
2014-Dec-20 22:50 300 4 5.4 1.0
2014-Dec-20 22:20 280 4 5.4 1.0
2014-Dec-20 21:50 310 5 5.4 1.0
2014-Dec-20 21:20 300 6 5.4 1.0
2014-Dec-20 20:50 300 7 5.4 1.0
2014-Dec-20 20:20 300 5 5.4 1.0
2014-Dec-20 19:50 310 5 5.4-0.0
2014-Dec-20 19:20 300 7 5.4 1.0
2014-Dec-20 18:50 310 6 5.4 1.0
2014-Dec-20 18:20 310 5 5.4 1.0
2014-Dec-20 17:50 300 5 5.4 1.0
2014-Dec-20 17:20 290 4 5.4 1.0
2014-Dec-20 16:50 280 4 5.4 2.0
2014-Dec-20 16:20 290 3 5.4 2.0
2014-Dec-20 15:50 300 3 5.4 2.0
2014-Dec-20 15:20 280 4 5.4 3.0
2014-Dec-20 14:50 300 5 5.4 3.0
2014-Dec-20 14:20 280 6 5.4 4.0
2014-Dec-20 13:50 280 6 5.4 4.0
2014-Dec-20 13:20 280 6 5.4 4.0
2014-Dec-20 12:50 270 7 5.4 4.0
2014-Dec-20 12:20 260 8 5.4 4.0
2014-Dec-20 11:50 270 6 5.4 4.0
2014-Dec-20 11:20 260 7 5.4 4.0
2014-Dec-20 10:50 250 7 5.4 4.0
2014-Dec-20 10:20 250 8 5.4 3.0
2014-Dec-20 09:50 250 9 5.4 3.0
2014-Dec-20 09:20 250 11 5.4 4.0
2014-Dec-20 08:50 230 11 5.4 3.0
2014-Dec-20 08:20 220 10 5.4 3.0
2014-Dec-20 07:50 230 12 5.4 4.0
2014-Dec-20 07:20 210 13 5.4 3.0
2014-Dec-20 06:50 190 8 5.4 4.0
2014-Dec-20 06:20 210 8 gusting 19 5.4 4.0
2014-Dec-20 05:50 5.4 4.0
2014-Dec-20 05:20 240 10 gusting 20 5.4 4.0